ラヴジョイ彗星

C/2011 W3 ( Lovejoy )

English version
Home page
Updated on February 15, 2012

---------------------------------------------------------------------

・ プロフィール

発見日 2011年11月27日
発見光度 13等
発見者 Terry Lovejoy (Thornlands, Qld., Australia)

・ 写真集

・ 軌道要素

Epoch 2011 Dec. 25.0 TT = JDT 2455920.5
T 2011 Dec. 16.01211 TT                                 MPC
q   0.0055561            (2000.0)            P               Q
z  +0.0129748      Peri.   53.62275     +0.18408854     -0.90052085
 +/-0.0000477      Node   326.53456     -0.96007510     -0.07885569
e   0.9999279      Incl.  134.40945     +0.21063526     +0.42760259
From 96 observations 2011 Nov. 27-Dec. 24, mean residual 0".9.

・ 星図

・ 光度変化

        m1 = 15.5 + 5 logΔ + 15.0 log r  [ ,0]  (              〜2011年12月16日)
        m1 = 11.0 + 5 logΔ + 15.0 log r  [0, ]  (2011年12月16日〜              )

---------------------------------------------------------------------

軌道要素はM.P.E.C. 2011-Y23に掲載されたものです。
星図はステラナビゲータ Ver.8 (アストロアーツ) で作成したものです。
光度グラフはComet for Windowsで作成したものです。

---------------------------------------------------------------------

Copyright(C) Seiichi Yoshida (comet@aerith.net). All rights reserved.